Asheville, NC

3:39 AM EST on December 10, 2019 (GMT -0500)
Asheville Regional

Weather History for KAVL - August, 2019

Change the Weather History Date:

Saturday, August 24, 2019

  Actual Average Record
Temperature  
Mean Temperature 68 °F 72 °F  
Max Temperature 73 °F 82 °F 94 °F (1968)
Min Temperature 63 °F 62 °F 47 °F (1997)
Degree Days  
Heating Degree Days 0 0  
Month to date heating degree days 0 0  
Since 1 June heating degree days 1 14  
Since 1 July heating degree days 0 0  
Cooling Degree Days 3 7  
Month to date cooling degree days 260 201  
Year to date cooling degree days 982 711  
Since 1 June cooling degree days 805 653  
Growing Degree Days 18 (Base 50)    
Moisture  
Dew Point 66 °F    
Average Humidity 85    
Maximum Humidity 97    
Minimum Humidity 73    
Precipitation  
Precipitation T in 0.15 in 2.92 in (1961)
Month to date precipitation 3.87 3.41  
Year to date precipitation 41.60 30.62  
Snow  
Snow 0.00 in 0.00 in 0.00 in ()
Month to date snowfall 0.0 0.0  
Since 1 June snowfall 0.0 0.0  
Since 1 July snowfall 0.0 0.0  
Snow Depth 0.00 in    
Sea Level Pressure  
Sea Level Pressure 30.10 in    
Wind  
Wind Speed 4 mph (SSE)    
Max Wind Speed 13 mph    
Max Gust Speed 17 mph    
Visibility 7 miles    
Events Fog , Rain    
T = Trace of Precipitation, MM = Missing Value Source: NWS Daily Summary

Daily Weather History Graph

Daily Weather History Graph

Search for Another Location

Airport or City:

Astronomy

Aug. 24, 2019 Rise Set
Actual Time 6:56 AM EDT 8:08 PM EDT
Civil Twilight 6:29 AM EDT 8:34 PM EDT
Nautical Twilight 5:58 AM EDT 9:06 PM EDT
Astronomical Twilight 5:25 AM EDT 9:38 PM EDT
Moon 12:52 AM EDT (8/24) 3:17 PM EDT (8/24)
Length of Visible Light 14h 04m
Length of Day
13h 12m
Last Quarter, 39% of the Moon is Illuminated
Aug 24
Last Quarter
Aug 30
New
Sep 5
First Quarter
Sep 14
Full
Sep 21
Last Quarter

Hourly Weather History & Observations

Time (EDT) Temp. Dew Point Humidity Pressure Visibility Wind Dir Wind Speed Gust Speed Precip Events Conditions
12:00 AM 71.1 °F 69.1 °F 93% 30.11 in 9.0 mi Calm Calm - N/A   Mostly Cloudy
12:08 AM 71.1 °F 69.1 °F 93% 30.12 in 6.0 mi South 3.5 mph - N/A   Mostly Cloudy
12:32 AM 71.1 °F 69.1 °F 93% 30.12 in 7.0 mi SSE 5.8 mph - N/A   Overcast
12:42 AM 71.1 °F 69.1 °F 93% 30.12 in 1.8 mi South 3.5 mph - N/A   Overcast
12:50 AM 71.6 °F 69.8 °F 94% 30.12 in 1.0 mi Calm Calm - N/A   Overcast
12:54 AM 71.1 °F 69.1 °F 93% 30.04 in 1.8 mi Calm Calm - N/A   Overcast
1:02 AM 71.1 °F 69.1 °F 93% 30.12 in 2.5 mi Calm Calm - N/A   Overcast
1:12 AM 71.1 °F 69.1 °F 93% 30.12 in 4.0 mi Calm Calm - N/A   Overcast
1:49 AM 69.8 °F 68.0 °F 94% 30.12 in 1.8 mi Calm Calm - N/A   Overcast
1:54 AM 70.0 °F 68.0 °F 93% 30.03 in 0.8 mi Calm Calm - N/A   Overcast
2:03 AM 70.0 °F 69.1 °F 97% 30.12 in 0.5 mi Calm Calm - N/A Fog Fog
2:18 AM 70.0 °F 68.0 °F 93% 30.12 in 0.5 mi Calm Calm - N/A Fog Fog
2:31 AM 70.0 °F 68.0 °F 93% 30.11 in 1.5 mi Calm Calm - N/A   Overcast
2:39 AM 70.0 °F 68.0 °F 93% 30.11 in 1.0 mi Calm Calm - N/A   Mist
2:47 AM 70.0 °F 68.0 °F 93% 30.11 in 0.5 mi Calm Calm - N/A Fog Fog
2:54 AM 70.0 °F 68.0 °F 93% 30.01 in 0.5 mi Calm Calm - N/A Fog Fog
3:21 AM 70.0 °F 68.0 °F 93% 30.10 in 0.2 mi Calm Calm - N/A Fog Fog
3:37 AM 70.0 °F 68.0 °F 93% 30.10 in 0.5 mi West 3.5 mph - N/A Fog Fog
3:54 AM 69.1 °F 68.0 °F 96% 30.02 in 0.5 mi Calm Calm - N/A Fog Fog
4:20 AM 70.0 °F 68.0 °F 93% 30.09 in 1.0 mi Calm Calm - N/A   Mist
4:24 AM 70.0 °F 68.0 °F 93% 30.09 in 2.0 mi Calm Calm - N/A   Overcast
4:26 AM 70.0 °F 68.0 °F 93% 30.09 in 4.0 mi Calm Calm - N/A   Overcast
4:54 AM 70.0 °F 68.0 °F 93% 30.01 in 9.0 mi Calm Calm - N/A   Overcast
5:23 AM 70.0 °F 68.0 °F 93% 30.09 in 10.0 mi NW 5.8 mph - N/A   Overcast
5:54 AM 70.0 °F 66.9 °F 90% 30.02 in 10.0 mi NNE 4.6 mph - N/A   Overcast
6:54 AM 71.1 °F 66.9 °F 87% 30.04 in 10.0 mi North 4.6 mph - N/A   Mostly Cloudy
7:05 AM 71.1 °F 66.9 °F 87% 30.12 in 10.0 mi North 4.6 mph - N/A   Overcast
7:54 AM 71.1 °F 66.9 °F 87% 30.06 in 10.0 mi North 4.6 mph - N/A   Overcast
8:54 AM 72.0 °F 66.9 °F 84% 30.08 in 10.0 mi NNW 4.6 mph - N/A   Overcast
9:49 AM 73.4 °F 68.0 °F 83% 30.16 in 10.0 mi Calm Calm - N/A   Overcast
9:54 AM 73.0 °F 68.0 °F 84% 30.09 in 10.0 mi Calm Calm - N/A   Overcast
10:08 AM 73.0 °F 68.0 °F 84% 30.16 in 10.0 mi SE 3.5 mph - N/A   Overcast
10:54 AM 71.1 °F 66.0 °F 84% 30.10 in 10.0 mi SE 4.6 mph - 0.00 in Rain Light Rain
11:06 AM 70.0 °F 64.9 °F 84% 30.18 in 10.0 mi Variable 4.6 mph - 0.00 in   Overcast
11:54 AM 72.0 °F 66.0 °F 81% 30.10 in 10.0 mi South 6.9 mph - 0.00 in   Overcast
12:54 PM 72.0 °F 64.0 °F 76% 30.09 in 10.0 mi SSE 8.1 mph - N/A   Overcast
1:07 PM 71.1 °F 64.0 °F 78% 30.16 in 10.0 mi SSE 9.2 mph - N/A   Overcast
1:54 PM 71.1 °F 62.1 °F 73% 30.09 in 10.0 mi SSE 11.5 mph - N/A   Overcast
2:54 PM 70.0 °F 62.1 °F 76% 30.09 in 10.0 mi SSE 6.9 mph - N/A   Overcast
3:54 PM 70.0 °F 62.1 °F 76% 30.08 in 10.0 mi South 9.2 mph - N/A   Overcast
4:54 PM 69.1 °F 61.0 °F 75% 30.06 in 10.0 mi SSE 10.4 mph - N/A   Overcast
5:54 PM 69.1 °F 60.1 °F 73% 30.07 in 10.0 mi Calm Calm - N/A   Overcast
6:54 PM 66.9 °F 60.1 °F 79% 30.09 in 10.0 mi South 5.8 mph - N/A   Overcast
7:54 PM 64.9 °F 59.0 °F 81% 30.11 in 10.0 mi South 4.6 mph - N/A   Overcast
8:16 PM 64.9 °F 59.0 °F 81% 30.18 in 10.0 mi South 3.5 mph - N/A   Overcast
8:54 PM 64.9 °F 59.0 °F 81% 30.12 in 10.0 mi SE 4.6 mph - N/A   Overcast
9:54 PM 64.0 °F 57.9 °F 80% 30.14 in 10.0 mi Calm Calm - N/A   Overcast
10:54 PM 64.0 °F 57.0 °F 78% 30.16 in 10.0 mi Calm Calm - N/A   Overcast
11:54 PM 64.0 °F 55.9 °F 75% 30.16 in 10.0 mi Calm Calm - N/A   Overcast